SCP
0 -0 -0 -0 0 -0 0 0 0 0 0 0 0 0 0 0 0 0 0 0 -0 -0 -0 0 0 0 0 0 0 0 0 0 0 0 0 0 0 0 0 0 0 0 0
-0 -0 0 0 0 -0 -0 0 0 0 0 0 0 0 0 0 0 0 0 -0 -0 -0 -0 -0 0 0 0 0 0 0 0 0 0 -0 -0 -0 0 0 0 0 0 0 0
0 -0 -0 -0 0 0 -0 -0 0 0 0 0 0 0 0 0 0 0 0 -0 -0 -0 -0 0 0 0 0 0 0 0 0 0 -0 -0 -0 0 0 0 0 0 0 0 0
0 0 -0 0 0 0 0 0 0 0 0 0 0 0 0 0 0 0 0 0 0 0 0 0 0 0 0 0 0 0 0 0 -0 -0 0 0 0 0 0 0 0 0 0
0 0 -0 0 0 0 -0 0 0 0 0 0 0 0 0 0 0 0 0 0 0 0 0 0 0 0 0 0 0 0 0 0 -0 -0 0 0 0 0 0 0 0 0 0
0 0 0 0 0 0 0 0 0 0 0 0 0 0 0 0 0 0 0 0 0 0 0 0 0 0 0 0 0 0 -0 -0 -0 0 0 0 0 0 0 0 0 0 0
0 0 0 0 0 0 0 0 0 -0 0 0 0 0 0 0 0 0 0 0 0 0 0 0 0 0 0 0 0 0 -0 -0 -0 0 0 0 0 0 0 0 0 0 0
0 0 0 0 0 0 0 0 0 0 0 0 0 0 0 0 0 0 0 0 -0 -0 -0 0 0 0 0 -0 -0 -0 -0 -0 -0 0 0 0 0 0 0 0 0 0 0
0 0 0 0 0 0 0 0 0 0 0 0 0 0 0 0 0 0 0 0 0 0 0 0 0 0 0 0 0 0 -0 -0 -0 0 0 0 0 0 0 0 0 0 0
0 0 0 0 0 0 0 0 0 0 0 0 0 0 0 0 0 0 0 0 0 0 0 0 0 0 0 0 0 0 -0 -0 0 0 0 0 0 0 0 0 0 0 0
0 0 0 0 0 0 0 0 0 0 0 0 0 0 0 0 0 0 0 0 0 0 0 0 0 0 0 0 0 0 -0 0 0 0 0 0 0 0 0 0 0 0 0
0 0 0 0 0 0 0 0 0 0 0 0 0 0 0 0 0 0 0 0 0 0 0 0 0 0 0 0 0 0 0 0 0 0 0 0 0 0 0 0 0 0 0
0 0 0 0 0 0 0 0 0 0 0 0 0 0 0 0 0 0 0 0 0 0 0 0 0 0 0 0 0 0 0 0 0 0 0 0 0 0 0 0 0 0 0
0 0 0 0 0 0 0 0 0 0 0 0 0 0 0 0 0 0 0 0 0 0 0 0 0 0 0 0 0 0 0 0 0 0 0 0 0 0 0 0 0 0 0
0 0 0 0 0 0 0 0 0 0 0 0 0 0 0 0 0 0 0 0 0 0 0 0 0 0 0 0 0 0 0 0 0 0 0 0 0 0 0 0 0 0 0
0 0 0 0 0 0 0 0 0 0 0 0 0 0 0 0 0 0 0 0 0 0 0 0 0 0 0 0 0 0 0 0 0 0 0 0 0 0 0 0 0 0 0
0 0 0 0 0 0 0 0 0 0 0 0 0 0 0 0 0 0 0 0 0 0 0 0 0 0 0 0 0 0 0 0 0 0 0 0 0 0 0 0 0 0 0
0 0 0 0 0 0 0 0 1 0 1 1 0 0 0 0 0 0 0 0 0 0 0 0 0 0 0 0 0 0 0 0 0 0 0 0 0 0 0 0 0 0 0
0 0 0 0 0 0 0 1 1 1 1 1 1 1 0 0 0 0 0 0 0 0 0 0 0 0 0 0 0 0 0 0 0 0 0 0 0 0 0 0 0 0 0
0 0 0 0 0 0 0 1 2 1 1 1 1 1 1 1 1 1 0 0 0 0 0 0 0 0 0 0 0 0 0 0 0 0 0 0 0 0 0 0 0 0 0
0 0 0 0 0 0 0 0 2 2 2 1 2 1 2 1 1 1 1 0 0 0 0 0 0 0 0 0 0 0 0 0 0 0 0 0 0 0 0 0 0 0 0
0 0 0 0 0 0 0 0 0 2 2 1 1 1 1 2 1 1 1 1 1 1 1 0 0 0 0 0 0 0 0 0 0 0 0 0 0 0 0 0 0 0 0
0 0 0 0 0 0 0 0 0 0 2 2 2 2 1 1 2 2 2 1 1 1 1 1 0 0 0 0 0 0 0 0 0 0 0 0 0 0 0 0 0 0 0
0 0 0 0 0 0 0 0 0 0 0 1 2 2 1 1 1 2 1 1 2 1 1 1 0 0 0 0 0 0 0 0 0 0 0 0 0 0 0 0 0 0 0
0 0 0 0 0 0 0 0 0 0 0 0 0 0 0 1 1 1 1 1 1 2 1 1 1 0 0 0 0 0 0 0 0 0 0 0 0 0 0 0 0 0 0
0 0 0 0 0 0 0 0 0 0 0 0 0 0 0 1 1 2 1 1 1 1 1 1 1 0 0 0 0 0 0 0 0 0 0 0 0 0 0 0 0 0 0
Wind_Speed_500mb
26 30 36 39 34 29 24 19 15 14 14 11 10 13 11 9 6 4 6 6 6 17 23 21 15 8 4 3 4 1 0 4 8 14 18 20 19 16 18 15 27 8 15
34 32 34 33 34 30 25 22 20 17 15 11 10 9 9 6 3 3 3 12 15 25 25 20 16 19 11 9 3 3 2 5 9 14 18 19 17 19 22 17 11 14 14
33 34 34 32 31 29 26 27 24 19 14 11 7 9 7 3 2 8 20 14 14 23 19 20 17 11 13 12 9 5 4 6 11 22 31 15 21 23 23 23 21 20 17
32 32 32 32 33 30 25 25 23 18 12 8 4 4 5 3 10 19 26 20 20 18 18 20 13 8 11 9 13 14 14 16 18 25 18 15 11 18 17 18 16 17 17
31 32 32 35 33 31 25 22 21 16 12 10 9 9 8 10 15 23 28 21 20 17 18 14 5 7 9 14 17 17 17 18 23 22 13 9 6 10 14 13 14 11 8
30 28 32 34 34 29 28 22 18 16 14 15 5 7 10 13 16 19 22 20 19 18 16 8 1 5 11 14 15 16 17 20 27 15 14 16 8 12 8 12 18 14 12
29 27 27 34 33 30 26 21 17 18 15 12 7 9 11 14 15 17 19 17 23 15 9 5 6 9 12 12 11 11 13 18 18 12 11 5 7 8 4 3 3 9 10
28 24 28 32 31 29 26 26 21 19 18 14 14 14 13 15 17 19 22 22 20 14 11 11 12 11 10 8 8 8 10 16 15 7 9 5 9 9 4 4 8 4 10
26 26 25 31 31 31 29 26 26 23 21 16 15 14 14 14 16 19 21 19 17 16 15 13 11 8 6 5 6 8 9 15 15 5 8 4 8 3 5 7 9 7 11
24 26 21 25 24 22 25 26 24 24 23 21 18 13 17 18 18 16 16 18 18 16 14 11 7 5 5 5 6 6 8 10 4 6 6 3 7 8 9 13 13 13 13
23 25 23 25 24 23 20 23 22 23 26 26 26 20 15 14 17 17 18 16 16 16 15 12 9 6 5 5 4 4 5 5 3 3 7 6 12 12 16 20 15 12 10
27 25 25 26 25 25 22 21 20 21 25 28 30 28 16 18 14 10 18 20 20 19 18 15 12 9 7 5 5 3 4 5 3 5 17 11 16 15 12 15 13 10 6
28 29 27 27 27 26 23 21 19 20 22 22 20 20 21 23 26 25 26 27 24 23 22 20 18 14 11 13 12 6 11 7 4 5 19 12 14 15 15 14 12 6 4
26 31 37 29 29 28 24 24 22 24 25 28 33 32 30 30 29 25 27 22 21 24 22 14 16 16 21 17 15 12 12 8 7 9 24 19 19 17 19 14 9 7 5
28 28 30 34 35 36 31 25 27 28 31 28 29 34 34 33 31 30 28 30 27 26 25 26 24 24 22 21 21 17 14 10 10 12 25 20 26 22 19 14 11 11 7
27 27 28 32 34 33 36 36 31 28 28 30 33 37 40 37 34 32 31 43 41 31 31 30 28 26 24 26 25 21 17 15 15 16 20 25 26 23 20 17 15 13 10
30 28 29 31 34 38 40 44 44 39 32 32 33 35 40 44 41 37 35 45 43 33 32 31 31 30 30 30 29 27 25 20 19 20 23 24 22 24 23 22 19 17 14
27 30 32 34 33 36 41 45 46 48 47 36 34 35 40 44 46 46 45 42 37 34 37 36 34 37 36 36 33 32 29 27 24 23 26 26 28 22 25 28 24 22 18
38 36 36 35 39 40 41 42 47 49 48 48 39 41 44 44 46 50 49 47 44 45 46 44 43 42 41 41 36 36 33 31 29 29 33 31 32 28 25 29 29 26 24
40 41 40 41 40 42 43 43 52 61 55 56 49 46 47 50 52 54 53 51 48 53 57 53 48 50 48 44 39 38 38 35 34 35 36 35 36 36 36 39 29 32 29
33 36 37 38 40 42 46 51 55 69 67 63 68 60 50 52 54 61 60 56 55 59 59 59 52 54 54 47 44 44 42 41 42 42 40 42 40 41 41 44 35 36 33
28 30 33 36 39 46 52 54 54 58 75 77 74 76 77 74 65 62 65 65 63 65 62 61 61 59 63 61 60 37 24 40 48 51 48 48 46 46 44 46 43 41 39
8 26 38 45 51 51 56 58 63 51 55 54 64 72 83 80 76 67 71 72 72 70 73 73 72 70 74 71 70 48 21 26 26 36 53 53 49 50 47 48 47 47 46
4 7 12 20 31 46 58 61 60 54 57 61 61 58 64 73 73 75 69 73 76 75 77 82 79 78 79 81 72 76 59 30 23 19 33 49 53 52 53 50 51 51 53
9 9 10 12 14 18 28 42 56 63 62 55 55 56 58 60 71 78 73 78 82 85 83 86 83 84 87 86 85 80 84 74 55 39 28 36 44 54 56 51 55 51 55
14 15 17 17 16 20 23 25 32 44 50 49 52 52 51 52 56 64 65 68 77 78 83 87 87 89 90 89 88 87 86 87 89 77 53 31 37 42 53 55 55 53 54
Wind_Direction_500mb
154 169 163 160 159 163 172 168 155 154 142 160 194 193 217 241 266 315 337 350 67 118 125 122 133 135 74 151 210 192 11 345 358 2 4 9 14 27 44 73 73 46 109
155 168 162 160 164 166 174 162 159 165 155 176 193 212 207 232 291 8 83 101 92 129 128 129 114 103 73 50 185 219 305 341 7 22 34 34 47 52 52 69 85 76 117
151 163 162 160 163 163 165 165 171 169 164 164 178 198 198 218 75 107 125 100 119 135 130 139 134 76 48 49 94 108 79 61 69 71 63 39 53 60 61 63 64 73 76
152 157 159 155 159 159 168 174 173 175 188 228 201 101 149 123 115 127 128 107 127 132 134 143 134 53 32 68 104 104 94 87 89 83 76 67 39 54 56 54 57 66 72
154 152 174 158 162 158 170 177 179 181 180 178 112 107 118 121 127 142 152 149 143 125 137 150 125 20 52 93 97 94 91 92 91 75 80 96 50 56 57 46 46 60 61
154 157 193 172 168 171 183 190 185 157 160 172 125 123 124 123 133 157 167 164 157 155 158 170 6 53 94 102 99 92 88 87 76 81 56 33 15 42 55 58 62 65 74
153 170 193 183 170 183 184 184 176 168 187 187 174 148 141 135 138 148 158 172 174 171 177 175 141 118 116 114 108 103 93 98 93 78 73 4 347 50 91 107 116 96 114
160 169 181 167 171 179 187 179 185 191 193 195 180 161 158 149 143 148 155 158 166 177 177 159 144 133 125 117 110 112 102 105 78 83 83 295 27 57 338 299 279 253 248
165 164 191 175 181 182 188 194 207 203 200 201 190 174 167 159 155 153 160 166 168 169 162 156 145 138 131 126 116 116 113 108 107 156 85 330 73 142 271 308 323 308 298
169 172 184 178 189 195 196 199 202 210 217 205 195 210 184 177 171 167 165 167 171 170 169 166 164 160 145 138 131 123 119 111 114 85 80 251 139 187 267 298 313 323 309
178 181 184 181 189 189 196 210 203 206 195 192 202 211 197 196 188 177 184 181 192 183 185 190 192 194 180 172 161 139 128 122 125 121 234 211 199 238 280 300 322 327 328
178 191 189 189 193 189 191 221 203 202 197 197 209 214 199 192 214 204 223 201 204 205 205 212 215 209 205 222 214 209 97 228 170 158 244 238 245 260 277 293 304 304 330
200 182 195 199 198 197 198 198 190 198 191 215 218 225 200 203 221 222 235 221 214 213 215 222 224 223 210 206 232 220 223 207 209 204 241 228 241 255 290 300 302 287 306
209 209 202 199 201 204 207 203 202 202 205 202 206 209 216 209 211 218 231 219 219 222 215 226 239 223 230 234 237 226 247 227 186 188 257 227 235 268 285 286 269 271 272
215 216 221 209 212 202 208 215 211 215 212 213 211 211 210 215 213 215 219 238 207 221 209 221 219 227 235 238 238 236 242 234 204 192 257 252 238 259 272 267 255 258 262
223 219 221 225 227 226 215 212 215 223 224 218 219 221 216 213 219 219 219 229 217 221 220 218 219 220 226 234 239 237 237 228 211 203 239 264 239 248 259 253 247 250 256
233 232 232 230 236 232 231 235 232 211 224 230 228 228 223 223 219 219 218 244 231 219 230 225 221 218 221 230 235 239 240 233 226 219 210 253 257 241 247 249 245 245 247
233 231 230 233 234 231 234 238 242 243 231 227 232 233 233 229 228 227 224 219 243 220 229 228 224 226 227 235 233 239 242 241 236 223 223 217 257 255 239 241 243 242 246
244 242 241 233 231 236 238 250 252 246 248 246 231 232 233 233 229 229 228 223 218 220 230 230 231 231 233 236 232 237 240 245 241 230 233 230 230 231 253 244 239 242 245
247 246 244 244 243 237 241 242 250 260 246 252 244 238 242 238 232 233 231 226 220 221 228 229 228 236 235 237 232 235 242 243 244 241 237 236 235 234 231 253 244 242 243
248 246 245 245 240 240 238 239 243 254 259 252 252 247 236 243 240 242 242 235 226 223 233 236 234 232 231 226 231 234 239 246 243 241 240 239 237 242 237 242 246 246 241
247 247 248 246 245 244 243 237 242 251 258 258 255 252 252 247 246 244 246 245 237 239 230 230 236 230 235 228 229 231 239 252 250 244 243 238 238 245 241 240 244 241 248
240 242 246 245 243 241 243 244 239 243 250 256 260 256 253 253 239 243 244 246 242 235 238 243 241 237 239 236 232 220 210 226 246 246 238 237 235 242 243 241 241 243 243
321 276 267 266 262 256 251 248 243 240 242 243 245 254 266 264 258 244 241 245 245 244 236 245 245 244 238 241 234 231 224 213 206 223 235 233 233 235 242 242 242 242 246
330 314 301 291 290 281 265 257 253 253 246 247 249 253 251 255 264 263 252 241 247 251 249 245 243 244 248 243 244 235 230 230 232 228 232 239 234 236 237 240 243 242 247
327 312 302 293 289 288 282 277 265 256 247 251 251 252 253 256 255 257 261 252 244 243 252 254 250 247 251 246 246 243 240 236 235 233 229 240 245 242 237 236 241 242 246
Wind_Speed_850mb
26 30 36 39 34 29 24 19 15 14 14 11 10 13 11 9 6 4 6 6 6 17 23 21 15 8 4 3 4 1 0 4 8 14 18 20 19 16 18 15 27 8 15
34 32 34 33 34 30 25 22 20 17 15 11 10 9 9 6 3 3 3 12 15 25 25 20 16 19 11 9 3 3 2 5 9 14 18 19 17 19 22 17 11 14 14
33 34 34 32 31 29 26 27 24 19 14 11 7 9 7 3 2 8 20 14 14 23 19 20 17 11 13 12 9 5 4 6 11 22 31 15 21 23 23 23 21 20 17
32 32 32 32 33 30 25 25 23 18 12 8 4 4 5 3 10 19 26 20 20 18 18 20 13 8 11 9 13 14 14 16 18 25 18 15 11 18 17 18 16 17 17
31 32 32 35 33 31 25 22 21 16 12 10 9 9 8 10 15 23 28 21 20 17 18 14 5 7 9 14 17 17 17 18 23 22 13 9 6 10 14 13 14 11 8
30 28 32 34 34 29 28 22 18 16 14 15 5 7 10 13 16 19 22 20 19 18 16 8 1 5 11 14 15 16 17 20 27 15 14 16 8 12 8 12 18 14 12
29 27 27 34 33 30 26 21 17 18 15 12 7 9 11 14 15 17 19 17 23 15 9 5 6 9 12 12 11 11 13 18 18 12 11 5 7 8 4 3 3 9 10
28 24 28 32 31 29 26 26 21 19 18 14 14 14 13 15 17 19 22 22 20 14 11 11 12 11 10 8 8 8 10 16 15 7 9 5 9 9 4 4 8 4 10
26 26 25 31 31 31 29 26 26 23 21 16 15 14 14 14 16 19 21 19 17 16 15 13 11 8 6 5 6 8 9 15 15 5 8 4 8 3 5 7 9 7 11
24 26 21 25 24 22 25 26 24 24 23 21 18 13 17 18 18 16 16 18 18 16 14 11 7 5 5 5 6 6 8 10 4 6 6 3 7 8 9 13 13 13 13
23 25 23 25 24 23 20 23 22 23 26 26 26 20 15 14 17 17 18 16 16 16 15 12 9 6 5 5 4 4 5 5 3 3 7 6 12 12 16 20 15 12 10
27 25 25 26 25 25 22 21 20 21 25 28 30 28 16 18 14 10 18 20 20 19 18 15 12 9 7 5 5 3 4 5 3 5 17 11 16 15 12 15 13 10 6
28 29 27 27 27 26 23 21 19 20 22 22 20 20 21 23 26 25 26 27 24 23 22 20 18 14 11 13 12 6 11 7 4 5 19 12 14 15 15 14 12 6 4
26 31 37 29 29 28 24 24 22 24 25 28 33 32 30 30 29 25 27 22 21 24 22 14 16 16 21 17 15 12 12 8 7 9 24 19 19 17 19 14 9 7 5
28 28 30 34 35 36 31 25 27 28 31 28 29 34 34 33 31 30 28 30 27 26 25 26 24 24 22 21 21 17 14 10 10 12 25 20 26 22 19 14 11 11 7
27 27 28 32 34 33 36 36 31 28 28 30 33 37 40 37 34 32 31 43 41 31 31 30 28 26 24 26 25 21 17 15 15 16 20 25 26 23 20 17 15 13 10
30 28 29 31 34 38 40 44 44 39 32 32 33 35 40 44 41 37 35 45 43 33 32 31 31 30 30 30 29 27 25 20 19 20 23 24 22 24 23 22 19 17 14
27 30 32 34 33 36 41 45 46 48 47 36 34 35 40 44 46 46 45 42 37 34 37 36 34 37 36 36 33 32 29 27 24 23 26 26 28 22 25 28 24 22 18
38 36 36 35 39 40 41 42 47 49 48 48 39 41 44 44 46 50 49 47 44 45 46 44 43 42 41 41 36 36 33 31 29 29 33 31 32 28 25 29 29 26 24
40 41 40 41 40 42 43 43 52 61 55 56 49 46 47 50 52 54 53 51 48 53 57 53 48 50 48 44 39 38 38 35 34 35 36 35 36 36 36 39 29 32 29
33 36 37 38 40 42 46 51 55 69 67 63 68 60 50 52 54 61 60 56 55 59 59 59 52 54 54 47 44 44 42 41 42 42 40 42 40 41 41 44 35 36 33
28 30 33 36 39 46 52 54 54 58 75 77 74 76 77 74 65 62 65 65 63 65 62 61 61 59 63 61 60 37 24 40 48 51 48 48 46 46 44 46 43 41 39
8 26 38 45 51 51 56 58 63 51 55 54 64 72 83 80 76 67 71 72 72 70 73 73 72 70 74 71 70 48 21 26 26 36 53 53 49 50 47 48 47 47 46
4 7 12 20 31 46 58 61 60 54 57 61 61 58 64 73 73 75 69 73 76 75 77 82 79 78 79 81 72 76 59 30 23 19 33 49 53 52 53 50 51 51 53
9 9 10 12 14 18 28 42 56 63 62 55 55 56 58 60 71 78 73 78 82 85 83 86 83 84 87 86 85 80 84 74 55 39 28 36 44 54 56 51 55 51 55
14 15 17 17 16 20 23 25 32 44 50 49 52 52 51 52 56 64 65 68 77 78 83 87 87 89 90 89 88 87 86 87 89 77 53 31 37 42 53 55 55 53 54
Wind_Direction_850mb
154 169 163 160 159 163 172 168 155 154 142 160 194 193 217 241 266 315 337 350 67 118 125 122 133 135 74 151 210 192 11 345 358 2 4 9 14 27 44 73 73 46 109
155 168 162 160 164 166 174 162 159 165 155 176 193 212 207 232 291 8 83 101 92 129 128 129 114 103 73 50 185 219 305 341 7 22 34 34 47 52 52 69 85 76 117
151 163 162 160 163 163 165 165 171 169 164 164 178 198 198 218 75 107 125 100 119 135 130 139 134 76 48 49 94 108 79 61 69 71 63 39 53 60 61 63 64 73 76
152 157 159 155 159 159 168 174 173 175 188 228 201 101 149 123 115 127 128 107 127 132 134 143 134 53 32 68 104 104 94 87 89 83 76 67 39 54 56 54 57 66 72
154 152 174 158 162 158 170 177 179 181 180 178 112 107 118 121 127 142 152 149 143 125 137 150 125 20 52 93 97 94 91 92 91 75 80 96 50 56 57 46 46 60 61
154 157 193 172 168 171 183 190 185 157 160 172 125 123 124 123 133 157 167 164 157 155 158 170 6 53 94 102 99 92 88 87 76 81 56 33 15 42 55 58 62 65 74
153 170 193 183 170 183 184 184 176 168 187 187 174 148 141 135 138 148 158 172 174 171 177 175 141 118 116 114 108 103 93 98 93 78 73 4 347 50 91 107 116 96 114
160 169 181 167 171 179 187 179 185 191 193 195 180 161 158 149 143 148 155 158 166 177 177 159 144 133 125 117 110 112 102 105 78 83 83 295 27 57 338 299 279 253 248
165 164 191 175 181 182 188 194 207 203 200 201 190 174 167 159 155 153 160 166 168 169 162 156 145 138 131 126 116 116 113 108 107 156 85 330 73 142 271 308 323 308 298
169 172 184 178 189 195 196 199 202 210 217 205 195 210 184 177 171 167 165 167 171 170 169 166 164 160 145 138 131 123 119 111 114 85 80 251 139 187 267 298 313 323 309
178 181 184 181 189 189 196 210 203 206 195 192 202 211 197 196 188 177 184 181 192 183 185 190 192 194 180 172 161 139 128 122 125 121 234 211 199 238 280 300 322 327 328
178 191 189 189 193 189 191 221 203 202 197 197 209 214 199 192 214 204 223 201 204 205 205 212 215 209 205 222 214 209 97 228 170 158 244 238 245 260 277 293 304 304 330
200 182 195 199 198 197 198 198 190 198 191 215 218 225 200 203 221 222 235 221 214 213 215 222 224 223 210 206 232 220 223 207 209 204 241 228 241 255 290 300 302 287 306
209 209 202 199 201 204 207 203 202 202 205 202 206 209 216 209 211 218 231 219 219 222 215 226 239 223 230 234 237 226 247 227 186 188 257 227 235 268 285 286 269 271 272
215 216 221 209 212 202 208 215 211 215 212 213 211 211 210 215 213 215 219 238 207 221 209 221 219 227 235 238 238 236 242 234 204 192 257 252 238 259 272 267 255 258 262
223 219 221 225 227 226 215 212 215 223 224 218 219 221 216 213 219 219 219 229 217 221 220 218 219 220 226 234 239 237 237 228 211 203 239 264 239 248 259 253 247 250 256
233 232 232 230 236 232 231 235 232 211 224 230 228 228 223 223 219 219 218 244 231 219 230 225 221 218 221 230 235 239 240 233 226 219 210 253 257 241 247 249 245 245 247
233 231 230 233 234 231 234 238 242 243 231 227 232 233 233 229 228 227 224 219 243 220 229 228 224 226 227 235 233 239 242 241 236 223 223 217 257 255 239 241 243 242 246
244 242 241 233 231 236 238 250 252 246 248 246 231 232 233 233 229 229 228 223 218 220 230 230 231 231 233 236 232 237 240 245 241 230 233 230 230 231 253 244 239 242 245
247 246 244 244 243 237 241 242 250 260 246 252 244 238 242 238 232 233 231 226 220 221 228 229 228 236 235 237 232 235 242 243 244 241 237 236 235 234 231 253 244 242 243
248 246 245 245 240 240 238 239 243 254 259 252 252 247 236 243 240 242 242 235 226 223 233 236 234 232 231 226 231 234 239 246 243 241 240 239 237 242 237 242 246 246 241
247 247 248 246 245 244 243 237 242 251 258 258 255 252 252 247 246 244 246 245 237 239 230 230 236 230 235 228 229 231 239 252 250 244 243 238 238 245 241 240 244 241 248
240 242 246 245 243 241 243 244 239 243 250 256 260 256 253 253 239 243 244 246 242 235 238 243 241 237 239 236 232 220 210 226 246 246 238 237 235 242 243 241 241 243 243
321 276 267 266 262 256 251 248 243 240 242 243 245 254 266 264 258 244 241 245 245 244 236 245 245 244 238 241 234 231 224 213 206 223 235 233 233 235 242 242 242 242 246
330 314 301 291 290 281 265 257 253 253 246 247 249 253 251 255 264 263 252 241 247 251 249 245 243 244 248 243 244 235 230 230 232 228 232 239 234 236 237 240 243 242 247
327 312 302 293 289 288 282 277 265 256 247 251 251 252 253 256 255 257 261 252 244 243 252 254 250 247 251 246 246 243 240 236 235 233 229 240 245 242 237 236 241 242 246